Weather History for Idaho Falls, ID

Change the Weather History Date:

Monday, December 9, 2013

  Actual Average Record
Temperature  
Mean Temperature -6 °F 22 °F  
Max Temperature 6 °F 30 °F 50 °F (2006)
Min Temperature -19 °F 13 °F -29 °F (1972)
Degree Days  
Heating Degree Days 71 43  
Month to date heating degree days 484 377  
Since 1 July heating degree days 2208 2280  
Cooling Degree Days 0 0  
Month to date cooling degree days 0 0  
Year to date cooling degree days 510 264  
Moisture  
Dew Point -14 °F    
Average Humidity 80    
Maximum Humidity 91    
Minimum Humidity 69    
Precipitation  
Precipitation T in 0.03 in 0.44 in (1970)
Month to date precipitation 0.09 0.28  
Year to date precipitation 6.26 9.80  
Sea Level Pressure  
Sea Level Pressure 30.53 in    
Wind  
Wind Speed 5 mph (West)    
Max Wind Speed 15 mph    
Max Gust Speed 18 mph    
Visibility 6 miles    
Events Fog    
T = Trace of Precipitation, MM = Missing Value Source: NWS Daily Summary

Daily Weather History Graph

Daily Weather History Graph

Search for Another Location

Airport:

Trip Planner

Search our weather history database for the weather conditions in past years. The results will help you decide how hot, cold, wet, or windy it might be!

Date:

Astronomy

Dec. 09, 2013 Rise Set
Actual Time 7:49 AM MST 4:51 PM MST
Civil Twilight 7:17 AM MST 5:24 PM MST
Nautical Twilight 6:41 AM MST 6:00 PM MST
Astronomical Twilight 6:06 AM MST 6:35 PM MST
Moon 12:34 PM MST (12/9) No Moon Set
Length of Visible Light 10h 07m
Length of Day
9h 02m
First Quarter, 52% of the Moon is Illuminated
Dec 9
First Quarter
Dec 17
Full
Dec 25
Last Quarter
Jan 1
New
Jan 7
First Quarter

Hourly Weather History & Observations

Time (MST) Temp. Windchill Dew Point Humidity Pressure Visibility Wind Dir Wind Speed Gust Speed Precip Events Conditions
12:13 AM -11.0 °F - -17.0 °F 75% 30.23 in 0.8 mi Calm Calm - N/A   Haze
12:24 AM -11.0 °F - -16.1 °F 78% 30.22 in 0.2 mi Calm Calm - N/A   Haze
12:36 AM -11.9 °F - -16.1 °F 82% 30.23 in 1.0 mi Calm Calm - N/A   Mist
12:53 AM -17.0 °F - -20.9 °F 82% 30.59 in 0.2 mi Calm Calm - N/A Fog Light Freezing Fog
1:04 AM -18.9 °F - -22.0 °F 86% 30.23 in 0.2 mi Calm Calm - N/A Fog Light Freezing Fog
1:29 AM -17.0 °F - -22.0 °F 78% 30.24 in 0.5 mi Calm Calm - N/A   Haze
1:49 AM -16.6 °F - -20.2 °F 84% 30.25 in 1.2 mi Calm Calm - N/A   Haze
1:53 AM -15.0 °F - -20.0 °F 78% 30.59 in 1.0 mi Calm Calm - N/A   Haze
2:11 AM -15.0 °F - -20.9 °F 75% 30.26 in 0.5 mi Calm Calm - N/A   Haze
2:16 AM -17.0 °F - -22.0 °F 78% 30.26 in 0.2 mi Calm Calm - N/A   Haze
2:53 AM -15.0 °F - -20.9 °F 75% 30.63 in 0.2 mi Calm Calm - N/A   Haze
3:04 AM -17.0 °F - -23.1 °F 74% 30.28 in 0.2 mi Calm Calm - N/A   Haze
3:32 AM -14.1 °F - -20.0 °F 75% 30.29 in 1.2 mi Calm Calm - N/A   Haze
3:41 AM -15.0 °F - -20.9 °F 75% 30.29 in 0.8 mi Calm Calm - N/A   Haze
3:53 AM -15.0 °F - -20.9 °F 75% 30.64 in 0.8 mi Calm Calm - N/A   Haze
3:56 AM -14.1 °F - -20.9 °F 71% 30.29 in 2.0 mi Calm Calm - N/A   Haze
4:12 AM -15.0 °F - -22.0 °F 71% 30.31 in 9.0 mi Calm Calm - N/A   Partly Cloudy
4:27 AM -15.0 °F - -23.1 °F 67% 30.31 in 10.0 mi Calm Calm - N/A   Mostly Cloudy
4:40 AM -11.0 °F -20.4 °F -17.0 °F 75% 30.31 in 10.0 mi South 3.5 mph - N/A   Overcast
4:53 AM -9.9 °F -23.4 °F -16.1 °F 74% 30.64 in 9.0 mi SSW 5.8 mph - N/A   Mostly Cloudy
5:53 AM -9.0 °F -22.3 °F -16.1 °F 71% 30.65 in 10.0 mi SW 5.8 mph - N/A   Mostly Cloudy
6:53 AM -8.0 °F - -14.1 °F 75% 30.66 in 10.0 mi Calm Calm - N/A   Clear
7:37 AM -13.0 °F - -20.9 °F 68% 30.35 in 9.0 mi Calm Calm - N/A Fog Mostly Cloudy
7:53 AM -13.0 °F - -20.0 °F 71% 30.71 in 9.0 mi Calm Calm - N/A Fog Mostly Cloudy
8:22 AM -11.0 °F -20.4 °F -17.0 °F 75% 30.38 in 0.5 mi North 3.5 mph - N/A Fog Shallow Fog
8:39 AM -8.0 °F - -14.1 °F 75% 30.37 in 7.0 mi Calm Calm - N/A Fog Shallow Fog
8:53 AM -8.0 °F - -14.1 °F 75% 30.72 in 7.0 mi Calm Calm - N/A Fog Overcast
9:18 AM -4.0 °F -12.4 °F -9.9 °F 76% 30.40 in 10.0 mi WNW 3.5 mph - N/A Fog Overcast
9:53 AM -0.0 °F -13.0 °F -7.1 °F 72% 30.74 in 7.0 mi SW 6.9 mph - N/A Fog Overcast
10:53 AM 1.9 °F -16.2 °F -6.0 °F 69% 30.77 in 9.0 mi SSW 13.8 mph - N/A Fog Overcast
11:53 AM 1.9 °F -12.9 °F -5.1 °F 72% 30.80 in 10.0 mi SW 9.2 mph - N/A Fog Mostly Cloudy
12:53 PM 1.9 °F -13.8 °F -5.1 °F 72% 30.80 in 10.0 mi SW 10.4 mph - N/A Fog Mostly Cloudy
1:53 PM 3.0 °F -6.4 °F -4.0 °F 73% 30.78 in 10.0 mi SSW 4.6 mph - N/A   Scattered Clouds
2:53 PM 5.0 °F -8.1 °F -4.0 °F 66% 30.77 in 10.0 mi SSW 8.1 mph - N/A   Scattered Clouds
3:53 PM 6.1 °F -2.8 °F -2.9 °F 67% 30.77 in 10.0 mi SSW 4.6 mph - N/A   Scattered Clouds
4:53 PM 1.9 °F -10.6 °F -4.0 °F 76% 30.77 in 10.0 mi North 6.9 mph - N/A   Mostly Cloudy
5:53 PM -0.0 °F -11.6 °F -5.1 °F 79% 30.78 in 10.0 mi North 5.8 mph - N/A   Overcast
6:53 PM 1.9 °F -9.2 °F -4.0 °F 76% 30.77 in 10.0 mi North 5.8 mph - N/A   Overcast
7:53 PM 1.9 °F -10.6 °F -5.1 °F 72% 30.79 in 10.0 mi North 6.9 mph - N/A   Overcast
8:53 PM 1.0 °F -11.7 °F -5.1 °F 75% 30.77 in 10.0 mi North 6.9 mph - N/A   Overcast
9:53 PM 1.9 °F -9.2 °F -4.0 °F 76% 30.73 in 10.0 mi North 5.8 mph - N/A   Overcast
10:53 PM 1.9 °F -9.2 °F -4.0 °F 76% 30.72 in 10.0 mi North 5.8 mph - 0.00 in   Overcast
11:53 PM 1.9 °F -5.6 °F -2.9 °F 80% 30.70 in 10.0 mi North 3.5 mph - N/A   Mostly Cloudy